Location: Castifao
(42.5040°N, 9.1124°E)
Time: 03:47:02
(UTC+00:00)

Cosmos-2242 - Pass Details

Date: 23 January 2020
Orbit: 590 x 618 km, 82.5° (Epoch: 18 February)

Event Time Altitude Azimuth Distance (km) Brightness Sun altitude
Rises 17:14:31 0° 358° (N) 2,869 6.3 -9.3°
Reaches altitude 10° 17:16:51 10° 4° (N) 1,956 5.4 -9.7°
Maximum altitude 17:20:59 45° 78° (ENE) 827 3.3 -10.5°
Drops below altitude 10° 17:25:04 10° 151° (SSE) 1,926 5.5 -11.2°
Sets 17:27:20 0° 158° (SSE) 2,819 6.4 -11.6°
